Content
SEND FEEDBACK

Daily
Averages
Monthly
Summary
United States of America

KLAWOCK, ALASKA


Home > North America > United States > Alaska
Elevation: 10 feet     Latitude: 55 33N     Longitude: 133 06W

WEATHER
 
SELECT A DAY
Number of Records: 216,981;   Date Range: 8/8/96 - 9/21/14
 
SHARE

PRINT THIS DATA

[ ← Previous Day ]
WEATHER ALMANAC - FEBRUARY 13, 2013
[ Next Day → ]
[ °C ]   °F
Weather ElementAverageHighLow
Temperature35.7 °F42.1 °F (12:53 pm)30.2 °F (4:26 am)
Dewpoint32.4 °F35.6 °F (8:04 pm)28.4 °F (4:40 am)
Humidity88.3 %100 % (4:26 am)67 % (2:53 pm)
Barometer30.23 in30.28 in (12:53 pm)30.12 in (11:53 pm)
Wind Speed1.5 mph6.9 mph (1:53 pm)
Weather ElementAverage
Visibility7.5 mi
Wind DirectionNE (48.4 °)

Weather ElementTotal
Precipitation0.04 in
Heating Degree Days28.9 (Base 65)
Averaged from 32 records on February 13, 2013
WEATHER CONDITIONS BREAKOUT
WIND DIRECTION BREAKOUT
WEATHER BY HOUR - FEBRUARY 13, 2013
[ °C ]   °F
Local TimeTemperatureDewpointHumidityBarometerVisibilityWind DirectionWind SpeedGust SpeedPrecipitationEventsConditions
12:53 AM35.1 °F33.1 °F92 %30.21 in10.0 miSouth (180°)3.5 mph0.01 inRainLight Rain
1:53 AM36.0 °F33.1 °F89 %30.22 in10.0 miCalm0.02 inOvercast
3:38 AM32.0 °F30.2 °F93 %30.23 in2.5 miCalmScattered Clouds
3:53 AM30.9 °F30.0 °F96 %30.24 in5.0 miCalmPartly Cloudy
4:26 AM30.2 °F30.2 °F100 %30.24 in4.0 miCalmMostly Cloudy
4:40 AM30.2 °F28.4 °F93 %30.24 in1.8 miCalmOvercast
4:44 AM30.2 °F30.2 °F100 %30.24 in0.8 miCalmOvercast
4:53 AM30.9 °F30.9 °F100 %30.25 in0.8 miCalmOvercast
5:00 AM30.2 °F30.2 °F100 %30.24 in1.0 miCalmOvercast
5:07 AM30.2 °F30.2 °F100 %30.24 in0.8 miCalmOvercast
5:16 AM32.0 °F30.2 °F93 %30.24 in1.5 miCalmOvercast
5:20 AM32.0 °F30.2 °F93 %30.24 in3.0 miCalmOvercast
5:53 AM32.0 °F30.9 °F96 %30.24 in10.0 miCalmOvercast
6:53 AM33.1 °F32.0 °F96 %30.24 in10.0 miCalmOvercast
7:53 AM34.0 °F32.0 °F92 %30.26 in10.0 miNE (40°)3.5 mphOvercast
8:53 AM35.1 °F33.1 °F92 %30.26 in10.0 miNorth (360°)4.6 mphOvercast
9:53 AM36.0 °F33.1 °F89 %30.27 in10.0 miCalmOvercast
10:53 AM39.0 °F33.1 °F79 %30.27 in10.0 miCalmMostly Cloudy
11:53 AM39.9 °F32.0 °F73 %30.27 in10.0 miVariable4.6 mphMostly Cloudy
12:53 PM42.1 °F34.0 °F73 %30.28 in10.0 miSouth (180°)5.8 mphScattered Clouds
1:53 PM42.1 °F33.1 °F70 %30.26 in10.0 miVariable6.9 mphScattered Clouds
2:53 PM42.1 °F32.0 °F67 %30.23 in10.0 miSSE (160°)6.9 mphClear
3:53 PM41.0 °F33.1 °F73 %30.22 in10.0 miCalmScattered Clouds
4:53 PM39.0 °F33.1 °F79 %30.21 in10.0 miCalmOvercast
5:53 PM39.9 °F33.1 °F77 %30.21 in10.0 miCalm0.00 inOvercast
6:53 PM39.0 °F34.0 °F82 %30.19 in10.0 miVariable3.5 mph0.00 inRainLight Rain
7:53 PM37.9 °F35.1 °F89 %30.18 in10.0 miCalm0.01 inRainLight Rain
8:04 PM37.4 °F35.6 °F93 %30.18 in10.0 miCalm0.00 inRainLight Rain
8:23 PM37.4 °F35.6 °F93 %30.17 in10.0 miNW (310°)3.5 mph0.00 inRainLight Rain
8:53 PM37.9 °F35.1 °F89 %30.17 in10.0 miCalm0.00 inRainLight Rain
10:53 PM37.9 °F35.1 °F89 %30.15 in10.0 miNW (320°)4.6 mph0.00 inOvercast
11:53 PM39.0 °F35.1 °F86 %30.12 in10.0 miCalmOvercast
Hourly data recorded from PAKW, located miles away from Klawock, Alaska







STORIES FROM OUR PARTNERS